User: anonymous   Login
Location: Unspecified
(0.0000°N, 0.0000°E)
Time: 05:36:20
(UTC+00:00)
Language:

AUBIESAT-1 - Orbit

View from above orbital plane
View from above orbital plane
View from above satellite
View from above satellite

Ground track
Ground track

The orbit data is extracted from the following two-line orbital elements,

1 37854U 11061E   17268.35732450 +.00001740 +00000-0 +99761-4 0  9997
2 37854 101.6927 192.9075 0166632 138.3275 223.0772 15.04409385321548
Epoch (UTC): 25 September 2017 08:34:32
Eccentricity: 0.0166632
inclination: 101.6927°
perigee height: 438 km
apogee height: 669 km
right ascension of ascending node: 192.9075°
argument of perigee: 138.3275°
revolutions per day: 15.04409385
mean anomaly at epoch: 223.0772°
orbit number at epoch: 32154

The dashed part of the orbit path shows where the satellite is in the earth's shadow,  

DLR